• In Hungary
  • List of Countries
  • For 7 days
  • Water Temperature
  • Satellite Maps
  • Weather Map
  • News
  • Weather Widgets
  • user-avatar
    Login

    Hourly Weather Gisborne

    Today, 20 July, Friday

    Time Temperature Precipitation Wind Pressure Humidity
    00:00 +10°C° 0 mm 2 mps 760 mmHg 95%
    01:00 +9°C° 0 mm 2 mps 760 mmHg 95%
    02:00 +9°C° 0 mm 2 mps 760 mmHg 95%
    03:00 +8°C° 0 mm 2 mps 760 mmHg 96%
    04:00 +8°C° 0 mm 2 mps 760 mmHg 96%
    05:00 +7°C° 0 mm 2 mps 760 mmHg 96%
    06:00 +7°C° 0 mm 2 mps 760 mmHg 97%
    07:00 +7°C° 0 mm 2 mps 760 mmHg 95%
    08:00 +8°C° 0 mm 2 mps 761 mmHg 92%
    09:00 +9°C° 0 mm 2 mps 761 mmHg 90%
    10:00 +12°C° 0 mm 2 mps 761 mmHg 78%
    11:00 +14°C° 0 mm 1 mps 761 mmHg 66%
    12:00 +18°C° 0 mm 1 mps 761 mmHg 55%
    13:00 +18°C° 0 mm 1 mps 761 mmHg 54%
    14:00 +18°C° 0 mm 1 mps 761 mmHg 54%
    15:00 +18°C° 0 mm 1 mps 760 mmHg 53%
    16:00 +15°C° 0 mm 1 mps 761 mmHg 65%
    17:00 +13°C° 0 mm 1 mps 761 mmHg 77%
    18:00 +11°C° 0 mm 1 mps 761 mmHg 89%
    19:00 +9°C° 0 mm 2 mps 761 mmHg 90%
    20:00 +8°C° 0 mm 2 mps 762 mmHg 92%
    21:00 +8°C° 0 mm 2 mps 762 mmHg 94%
    22:00 +8°C° 0 mm 2 mps 762 mmHg 94%
    23:00 +7°C° 0 mm 2 mps 762 mmHg 93%

    Tomorrow, 21 July, Saturday

    Time Temperature Precipitation Wind Pressure Humidity
    00:00 +7°C° 0 mm 2 mps 762 mmHg 93%
    01:00 +7°C° 0 mm 2 mps 762 mmHg 92%
    02:00 +7°C° 0 mm 2 mps 762 mmHg 92%
    03:00 +7°C° 0 mm 2 mps 762 mmHg 91%
    04:00 +7°C° 0 mm 2 mps 762 mmHg 92%
    05:00 +7°C° 0 mm 2 mps 762 mmHg 92%
    06:00 +7°C° 0 mm 2 mps 762 mmHg 93%
    07:00 +7°C° 0 mm 2 mps 762 mmHg 88%
    08:00 +8°C° 0 mm 2 mps 762 mmHg 82%
    09:00 +9°C° 0 mm 3 mps 763 mmHg 77%
    10:00 +11°C° 0 mm 3 mps 762 mmHg 69%
    11:00 +13°C° 0 mm 3 mps 762 mmHg 61%
    12:00 +16°C° 0 mm 3 mps 762 mmHg 54%
    13:00 +14°C° 0 mm 3 mps 761 mmHg 55%
    14:00 +14°C° 0 mm 4 mps 761 mmHg 57%
    15:00 +14°C° 0 mm 4 mps 760 mmHg 59%
    16:00 +13°C° 0 mm 4 mps 760 mmHg 66%
    17:00 +11°C° 0 mm 4 mps 760 mmHg 73%
    18:00 +10°C° 0 mm 4 mps 760 mmHg 80%
    19:00 +10°C° 0 mm 4 mps 760 mmHg 81%
    20:00 +10°C° 0 mm 5 mps 759 mmHg 82%
    21:00 +10°C° 0 mm 5 mps 759 mmHg 83%
    22:00 +12°C° 0 mm 5 mps 759 mmHg 82%
    23:00 +12°C° 0 mm 5 mps 759 mmHg 81%

    Day after tomorrow, 22 July, Sunday

    Time Temperature Precipitation Wind Pressure Humidity
    00:00 +13°C° 0 mm 6 mps 758 mmHg 81%
    01:00 +13°C° 0 mm 5 mps 758 mmHg 82%
    02:00 +13°C° 0 mm 5 mps 758 mmHg 84%
    03:00 +13°C° 0 mm 5 mps 757 mmHg 86%
    04:00 +13°C° 0.1 mm 5 mps 757 mmHg 86%
    05:00 +13°C° 0.1 mm 6 mps 757 mmHg 85%
    06:00 +14°C° 0.1 mm 6 mps 756 mmHg 85%
    07:00 +14°C° 0.1 mm 6 mps 756 mmHg 84%
    08:00 +14°C° 0.1 mm 6 mps 757 mmHg 84%
    09:00 +14°C° 0.1 mm 6 mps 757 mmHg 83%
    10:00 +15°C° 0.1 mm 6 mps 756 mmHg 80%
    11:00 +15°C° 0.1 mm 6 mps 756 mmHg 77%
    12:00 +16°C° 0.1 mm 6 mps 755 mmHg 74%
    13:00 +15°C° 0.5 mm 6 mps 754 mmHg 79%
    14:00 +15°C° 0.5 mm 5 mps 754 mmHg 83%
    15:00 +14°C° 0.5 mm 5 mps 753 mmHg 88%
    16:00 +14°C° 1 mm 5 mps 753 mmHg 90%
    17:00 +13°C° 1 mm 5 mps 753 mmHg 92%
    18:00 +13°C° 1 mm 5 mps 753 mmHg 93%
    19:00 +12°C° 0.3 mm 4 mps 753 mmHg 94%
    20:00 +11°C° 0.3 mm 4 mps 754 mmHg 94%
    21:00 +11°C° 0.3 mm 3 mps 754 mmHg 94%
    22:00 +10°C° 0.1 mm 3 mps 754 mmHg 94%
    23:00 +10°C° 0.1 mm 4 mps 754 mmHg 94%

    23 July, Monday

    Time Temperature Precipitation Wind Pressure Humidity
    00:00 +8°C° 0.1 mm 4 mps 754 mmHg 93%
    01:00 +8°C° 0 mm 4 mps 754 mmHg 93%
    02:00 +8°C° 0 mm 4 mps 754 mmHg 93%
    03:00 +9°C° 0 mm 3 mps 754 mmHg 93%
    04:00 +7°C° 0 mm 4 mps 754 mmHg 92%
    05:00 +7°C° 0 mm 4 mps 755 mmHg 92%
    06:00 +7°C° 0 mm 4 mps 755 mmHg 92%
    07:00 +7°C° 0 mm 4 mps 756 mmHg 89%
    08:00 +9°C° 0 mm 3 mps 756 mmHg 86%
    09:00 +9°C° 0 mm 3 mps 757 mmHg 84%
    10:00 +11°C° 0 mm 3 mps 757 mmHg 71%
    11:00 +12°C° 0 mm 3 mps 757 mmHg 58%
    12:00 +15°C° 0 mm 2 mps 757 mmHg 46%
    13:00 +15°C° 0 mm 2 mps 756 mmHg 45%
    14:00 +15°C° 0 mm 2 mps 756 mmHg 44%
    15:00 +15°C° 0 mm 2 mps 756 mmHg 43%
    16:00 +13°C° 0 mm 2 mps 756 mmHg 53%
    17:00 +11°C° 0 mm 1 mps 757 mmHg 63%
    18:00 +9°C° 0 mm 1 mps 757 mmHg 73%
    19:00 +9°C° 0 mm 1 mps 757 mmHg 77%
    20:00 +8°C° 0 mm 1 mps 758 mmHg 81%
    21:00 +7°C° 0 mm 1 mps 758 mmHg 85%
    22:00 +7°C° 0 mm 1 mps 758 mmHg 85%
    23:00 +7°C° 0 mm 1 mps 758 mmHg 84%

    24 July, Tuesday

    Time Temperature Precipitation Wind Pressure Humidity
    00:00 +6°C° 0 mm 1 mps 758 mmHg 84%
    01:00 +6°C° 0 mm 1 mps 758 mmHg 83%
    02:00 +5°C° 0 mm 2 mps 758 mmHg 83%
    03:00 +5°C° 0 mm 2 mps 758 mmHg 82%
    04:00 +5°C° 0 mm 2 mps 758 mmHg 84%
    05:00 +4°C° 0 mm 2 mps 758 mmHg 85%
    06:00 +4°C° 0 mm 2 mps 758 mmHg 86%
    07:00 +5°C° 0.1 mm 2 mps 758 mmHg 83%
    08:00 +7°C° 0.1 mm 2 mps 758 mmHg 79%
    09:00 +8°C° 0.1 mm 2 mps 759 mmHg 75%
    10:00 +9°C° 0.1 mm 2 mps 758 mmHg 71%
    11:00 +12°C° 0.1 mm 2 mps 758 mmHg 67%
    12:00 +12°C° 0.1 mm 3 mps 758 mmHg 63%
    13:00 +12°C° 0.2 mm 3 mps 757 mmHg 67%
    14:00 +12°C° 0.2 mm 3 mps 757 mmHg 70%
    15:00 +11°C° 0.2 mm 3 mps 756 mmHg 73%
    16:00 +10°C° 0.1 mm 3 mps 757 mmHg 79%
    17:00 +9°C° 0.1 mm 3 mps 757 mmHg 84%
    18:00 +8°C° 0.1 mm 2 mps 757 mmHg 90%
    19:00 +7°C° 0 mm 3 mps 757 mmHg 91%
    20:00 +7°C° 0 mm 3 mps 757 mmHg 93%
    21:00 +5°C° 0 mm 3 mps 757 mmHg 95%
    22:00 +5°C° 0 mm 3 mps 757 mmHg 95%
    23:00 +5°C° 0 mm 3 mps 756 mmHg 96%

    25 July, Wednesday

    Time Temperature Precipitation Wind Pressure Humidity
    00:00 +5°C° 0 mm 3 mps 756 mmHg 96%
    01:00 +5°C° 0 mm 4 mps 756 mmHg 95%
    02:00 +5°C° 0 mm 4 mps 755 mmHg 95%
    03:00 +5°C° 0 mm 4 mps 755 mmHg 94%
    04:00 +5°C° 0 mm 4 mps 755 mmHg 94%
    05:00 +5°C° 0 mm 4 mps 755 mmHg 94%
    06:00 +5°C° 0 mm 4 mps 754 mmHg 93%
    07:00 +5°C° 0 mm 4 mps 754 mmHg 91%
    08:00 +5°C° 0 mm 4 mps 754 mmHg 89%
    09:00 +6°C° 0 mm 4 mps 754 mmHg 87%
    10:00 +7°C° 0 mm 4 mps 753 mmHg 77%
    11:00 +10°C° 0 mm 4 mps 753 mmHg 68%
    12:00 +11°C° 0 mm 4 mps 752 mmHg 58%
    13:00 +12°C° 0 mm 4 mps 752 mmHg 55%
    14:00 +12°C° 0 mm 4 mps 751 mmHg 52%
    15:00 +12°C° 0 mm 4 mps 750 mmHg 49%
    16:00 +11°C° 0 mm 4 mps 750 mmHg 57%
    17:00 +8°C° 0 mm 4 mps 750 mmHg 66%
    18:00 +6°C° 0 mm 4 mps 750 mmHg 75%
    19:00 +6°C° 0 mm 4 mps 750 mmHg 78%
    20:00 +5°C° 0 mm 4 mps 750 mmHg 80%
    21:00 +5°C° 0 mm 4 mps 750 mmHg 83%
    22:00 +3°C° 0 mm 5 mps 750 mmHg 82%
    23:00 +3°C° 0 mm 5 mps 750 mmHg 82%
    Show more